CZ-8A R/B, 62980

Orbit data source: Space-Track

CZ-8A R/B, 62980 is space debris in LEO originally from a launch on Tue, 11 Feb 2025 UTC launched from the Wenchang Satellite Launch Center (WSC). Debris objects in space refer to the collection of defunct objects orbiting the Earth. Examples of debris include non-operational satellites, rocket bodies, and fragments generated from explosions, collisions, or faulty payload assembly.

Loading next visibility...
Identifier
62980, 2025-030K
Orbit
LEO
Country
Flag of CNCN / PRC
Related business
Manufacturer
CALT
Mission
Spacecraft
Bus & Motor
CZ-8A STAGE 2, Unknown motor
Mass
~2,800 kg wet, ~2,800 kg dry
Launch date (UTC)
2025-02-11 (8 months ago)
Launch vehicle
Unknown
Launch site
Wenchang Satellite Launch Center (WSC)
Object type
Payload
Rocket body
Debris
Shape & HBR
Cyl, 4.2 m
Radar Cross Section
36.967 m², Large (>1 m²)

Expand to show TLE details & history
Last TLE update: 5 hours ago

TLE from 5 hours ago
0 CZ-8A R/B
1 62980U 25030K   25299.46239828  .00000195  00000-0  12207-3 0  9994
2 62980  50.0058 215.3943 0118400 272.0339  86.7022 14.32834814 36857
Epoch: 2025-10-26T11:05Z
TLE epoch observation values (Epoch: 2025-10-26T11:05:51.211Z)
Latitude
-0.00007°
Longitude
13.85261°
Altitude
778.928 km
Speed
7.468 km/s
True Right ascension
14h 21m 34s
True Declination
0° 00' 00"
Sunlit
Object was in daylight at epoch
Visualization orbit readout
Latitude
Unknown
Longitude
Unknown
Altitude
Unknown
Speed
Unknown
Apparent Right ascension
Unknown
Apparent Declination
Unknown
Sunlit
N/A
Visualization observer readout
Local Sidereal Time
11:46:28
Azimuth
Unknown
Elevation
Unknown
Doppler factor
Unknown
Orbital elements
Apogee altitude
867.799 km
Perigee altitude
698.223 km
Semi-major axis
7,161.148 km
Eccentricity
0.01184
Inclination
50.0058°
RAAN
215.3943°
Arg. of periapsis
272.0339°
True anomaly
88.05774°
Mean anomaly
86.7022°
Eccentric anomaly
87.37987°
Mean motion
3.58153 °/min
Orbital period
100.52 mins
BSTAR
0.00012207
Loading maneuver chart data...
Computing Atmospheric mass density...
Loading historical data...
Loading historical data...
Loading historical data...
Loading historical data...
Loading historical data...
Loading historical data...
Loading historical data...

Documentation

Showing up to 5 results
|